Simultaneous Nadir Overpasses (SNOs) Predictions

Prediction of SNOs over PacNW region [( 10.00, 139.50) to ( 22.70, 165.60)] between AQUA and NPP Satellites:

Table of predicted SNOs over PacNW region for the next 30.0 days since TLE Epoch: 5/28/2016
Index Date (AQUA) Time (AQUA) AQUA Lat,Lon Date (NPP) Time (NPP) NPP Lat,Lon Distance(km) Time Diff (sec)
1 05/29/2016 15:59:26 22.60, 147.45 05/29/2016 16:02:48 23.25, 144.56 304.55 202
2 06/01/2016 02:42:23 22.68, 159.85 06/01/2016 02:38:53 27.26, 157.27 572.16 210
3 06/06/2016 15:09:58 22.62, 159.81 06/06/2016 15:12:04 23.17, 157.22 271.89 126
4 06/09/2016 03:31:47 22.68, 147.49 06/09/2016 03:28:17 22.62, 145.77 176.33 210
5 06/14/2016 15:59:21 22.62, 147.45 06/14/2016 16:02:45 23.28, 144.56 304.72 204
6 06/17/2016 02:42:17 22.66, 159.86 06/17/2016 02:38:48 27.14, 157.30 562.23 209
7 06/22/2016 15:09:50 22.59, 159.81 06/22/2016 15:11:59 23.19, 157.23 272.94 129




NCC Satellite Simultaneous Nadir Overpasses (SNOs) Prediction Service
